User: anonymous   Login
Location: Unspecified
(0.0000°N, 0.0000°E)
Time: 23:48:44
(UTC+00:00)
Language:

Geosat - Orbit

View from above orbital plane
View from above orbital plane
View from above satellite
View from above satellite

Ground track
Ground track

The orbit data is extracted from the following two-line orbital elements,

1 15595U 85021A   17349.35918476 -.00000069  00000-0  21947-4 0  9991
2 15595 108.0363 111.6409 0001350 267.2847 127.0260 14.38053152716425
Epoch (UTC): 15 December 2017 08:37:13
Eccentricity: 0.0001350
inclination: 108.0363°
perigee height: 764 km
apogee height: 766 km
right ascension of ascending node: 111.6409°
argument of perigee: 267.2847°
revolutions per day: 14.38053152
mean anomaly at epoch: 127.0260°
orbit number at epoch: 71642

The dashed part of the orbit path shows where the satellite is in the earth's shadow,  

DLR